Wetterdaten: Freitag, 08.05.2015
Datum Zeit Temp. A. Feuchte A. Luftdruck Regen Wind Richtung Richtung Sonnenschein ET UV Solar Taupunkt Windchill Windben Empfang
08.05.2015 00:00 9,7 C 88 % 1019,1 hPa 0,0 l/m 0,0 km/h (0 Bft) S 187 0 min 0,000 mm 0,0 UV-I 0 W/m 7,8 C 9,7 C 0,0 km/h (0 Bft) 0,00 %
08.05.2015 00:15 9,6 C 90 % 1019,1 hPa 0,0 l/m 0,0 km/h (0 Bft) S 185 0 min 0,000 mm 0,0 UV-I 0 W/m 8,0 C 9,6 C 0,0 km/h (0 Bft) 0,00 %
08.05.2015 00:30 9,3 C 90 % 1019,2 hPa 0,0 l/m 0,0 km/h (0 Bft) S 183 0 min 0,000 mm 0,0 UV-I 0 W/m 7,7 C 9,3 C 0,0 km/h (0 Bft) 0,00 %
08.05.2015 00:45 9,6 C 89 % 1018,9 hPa 0,0 l/m 0,0 km/h (0 Bft) S-SO 166 0 min 0,000 mm 0,0 UV-I 0 W/m 7,9 C 9,6 C 0,0 km/h (0 Bft) 0,00 %
08.05.2015 01:00 10,0 C 87 % 1019,0 hPa 0,0 l/m 0,0 km/h (0 Bft) S 177 0 min 0,000 mm 0,0 UV-I 0 W/m 7,9 C 10,0 C 0,0 km/h (0 Bft) 0,00 %
08.05.2015 01:15 10,1 C 88 % 1018,9 hPa 0,0 l/m 0,0 km/h (0 Bft) S-SO 166 0 min 0,000 mm 0,0 UV-I 0 W/m 8,2 C 10,1 C 0,0 km/h (0 Bft) 0,00 %
08.05.2015 01:30 10,1 C 87 % 1018,6 hPa 0,0 l/m 0,0 km/h (0 Bft) S 190 0 min 0,000 mm 0,0 UV-I 0 W/m 8,0 C 10,1 C 0,0 km/h (0 Bft) 0,00 %
08.05.2015 01:45 9,6 C 90 % 1018,6 hPa 0,0 l/m 0,0 km/h (0 Bft) S 172 0 min 0,000 mm 0,0 UV-I 0 W/m 8,0 C 9,6 C 0,0 km/h (0 Bft) 0,00 %
08.05.2015 02:00 9,5 C 90 % 1018,2 hPa 0,0 l/m 0,0 km/h (0 Bft) S-SW 197 0 min 0,000 mm 0,0 UV-I 0 W/m 7,9 C 9,5 C 0,0 km/h (0 Bft) 0,00 %
08.05.2015 02:15 9,5 C 87 % 1018,4 hPa 0,0 l/m 0,0 km/h (0 Bft) S 172 0 min 0,000 mm 0,0 UV-I 0 W/m 7,4 C 9,5 C 0,0 km/h (0 Bft) 0,00 %
08.05.2015 02:30 9,7 C 86 % 1018,3 hPa 0,0 l/m 0,0 km/h (0 Bft) S 189 0 min 0,000 mm 0,0 UV-I 0 W/m 7,5 C 9,7 C 0,0 km/h (0 Bft) 0,00 %
08.05.2015 02:45 9,9 C 82 % 1017,8 hPa 0,0 l/m 0,0 km/h (0 Bft) O-SO 118 0 min 0,000 mm 0,0 UV-I 0 W/m 7,0 C 9,9 C 0,0 km/h (0 Bft) 0,00 %
08.05.2015 03:00 9,9 C 80 % 1017,9 hPa 0,0 l/m 0,0 km/h (0 Bft) O-SO 110 0 min 0,000 mm 0,0 UV-I 0 W/m 6,6 C 9,9 C 0,0 km/h (0 Bft) 0,00 %
08.05.2015 03:15 10,0 C 78 % 1017,7 hPa 0,0 l/m 0,0 km/h (0 Bft) S 191 0 min 0,000 mm 0,0 UV-I 0 W/m 6,3 C 10,0 C 0,0 km/h (0 Bft) 0,00 %
08.05.2015 03:30 9,6 C 82 % 1017,8 hPa 0,0 l/m 0,0 km/h (0 Bft) S-SO 166 0 min 0,000 mm 0,0 UV-I 0 W/m 6,7 C 9,6 C 0,0 km/h (0 Bft) 0,00 %
08.05.2015 03:45 9,2 C 83 % 1017,8 hPa 0,0 l/m 0,0 km/h (0 Bft) S 171 0 min 0,000 mm 0,0 UV-I 0 W/m 6,5 C 9,2 C 0,0 km/h (0 Bft) 0,00 %
08.05.2015 04:00 9,0 C 84 % 1017,9 hPa 0,0 l/m 0,0 km/h (0 Bft) SO 145 0 min 0,000 mm 0,0 UV-I 0 W/m 6,4 C 9,0 C 0,0 km/h (0 Bft) 0,00 %
08.05.2015 04:15 8,8 C 84 % 1017,7 hPa 0,0 l/m 0,0 km/h (0 Bft) O-NO 76 0 min 0,000 mm 0,0 UV-I 0 W/m 6,2 C 8,8 C 0,0 km/h (0 Bft) 0,00 %
08.05.2015 04:30 8,8 C 84 % 1017,5 hPa 0,0 l/m 0,0 km/h (0 Bft) S 173 0 min 0,000 mm 0,0 UV-I 0 W/m 6,2 C 8,8 C 0,0 km/h (0 Bft) 0,00 %
08.05.2015 04:45 8,7 C 84 % 1017,5 hPa 0,0 l/m 0,0 km/h (0 Bft) S-SO 160 0 min 0,000 mm 0,0 UV-I 0 W/m 6,2 C 8,7 C 0,0 km/h (0 Bft) 0,00 %
08.05.2015 05:00 8,7 C 84 % 1017,5 hPa 0,0 l/m 0,0 km/h (0 Bft) SO 138 0 min 0,000 mm 0,0 UV-I 0 W/m 6,2 C 8,7 C 0,0 km/h (0 Bft) 0,00 %
08.05.2015 05:15 8,6 C 84 % 1017,2 hPa 0,0 l/m 0,0 km/h (0 Bft) S 173 0 min 0,000 mm 0,0 UV-I 0 W/m 6,1 C 8,6 C 0,0 km/h (0 Bft) 0,00 %
08.05.2015 05:30 8,3 C 86 % 1017,3 hPa 0,0 l/m 0,0 km/h (0 Bft) O-SO 113 0 min 0,000 mm 0,0 UV-I 0 W/m 6,1 C 8,3 C 0,0 km/h (0 Bft) 0,00 %
08.05.2015 05:45 8,3 C 86 % 1017,2 hPa 0,0 l/m 0,0 km/h (0 Bft) SO 135 0 min 0,000 mm 0,0 UV-I 0 W/m 6,1 C 8,3 C 0,0 km/h (0 Bft) 0,00 %
08.05.2015 06:00 8,6 C 84 % 1017,5 hPa 0,0 l/m 0,0 km/h (0 Bft) S 173 15 min 0,000 mm 0,0 UV-I 30 W/m 6,1 C 8,6 C 0,0 km/h (0 Bft) 0,00 %
08.05.2015 06:15 9,1 C 82 % 1017,4 hPa 0,0 l/m 0,0 km/h (0 Bft) S 173 0 min 0,000 mm 0,0 UV-I 38 W/m 6,2 C 9,1 C 0,0 km/h (0 Bft) 0,00 %
08.05.2015 06:30 9,5 C 79 % 1017,0 hPa 0,0 l/m 0,0 km/h (0 Bft) S 173 0 min 0,000 mm 0,0 UV-I 51 W/m 6,0 C 9,5 C 0,0 km/h (0 Bft) 0,00 %
08.05.2015 06:45 9,6 C 80 % 1017,0 hPa 0,0 l/m 0,0 km/h (0 Bft) S 173 0 min 0,000 mm 1,0 UV-I 50 W/m 6,3 C 9,6 C 0,0 km/h (0 Bft) 0,00 %
08.05.2015 07:00 9,8 C 81 % 1016,9 hPa 0,0 l/m 0,4 km/h (0 Bft) O 82 0 min 0,000 mm 1,0 UV-I 66 W/m 6,7 C 9,8 C 4,0 km/h (1 Bft) 0,00 %
08.05.2015 07:15 10,6 C 79 % 1016,5 hPa 0,0 l/m 1,8 km/h (1 Bft) O-SO 102 15 min 0,000 mm 1,0 UV-I 155 W/m 7,1 C 10,6 C 4,0 km/h (1 Bft) 0,00 %
08.05.2015 07:30 11,0 C 79 % 1016,7 hPa 0,0 l/m 5,8 km/h (2 Bft) O-SO 102 0 min 0,000 mm 1,0 UV-I 161 W/m 7,5 C 11,0 C 7,9 km/h (2 Bft) 0,00 %
08.05.2015 07:45 11,2 C 77 % 1016,7 hPa 0,0 l/m 4,3 km/h (1 Bft) O-SO 107 0 min 0,000 mm 1,0 UV-I 147 W/m 7,3 C 11,2 C 7,9 km/h (2 Bft) 0,00 %
08.05.2015 08:00 11,8 C 74 % 1016,8 hPa 0,0 l/m 3,2 km/h (1 Bft) N 5 0 min 0,000 mm 1,0 UV-I 171 W/m 7,3 C 11,8 C 7,9 km/h (2 Bft) 0,00 %
08.05.2015 08:15 11,8 C 74 % 1016,6 hPa 0,0 l/m 2,9 km/h (1 Bft) NO 50 0 min 0,000 mm 2,0 UV-I 151 W/m 7,3 C 11,8 C 4,0 km/h (1 Bft) 0,00 %
08.05.2015 08:30 12,7 C 72 % 1016,3 hPa 0,0 l/m 3,2 km/h (1 Bft) O-SO 108 15 min 0,000 mm 2,0 UV-I 381 W/m 7,8 C 12,7 C 7,9 km/h (2 Bft) 0,00 %
08.05.2015 08:45 12,8 C 71 % 1016,2 hPa 0,0 l/m 4,7 km/h (1 Bft) O 85 0 min 0,000 mm 2,0 UV-I 224 W/m 7,7 C 12,8 C 7,9 km/h (2 Bft) 0,00 %
08.05.2015 09:00 14,1 C 64 % 1016,1 hPa 0,0 l/m 6,8 km/h (2 Bft) O 80 15 min 0,000 mm 2,0 UV-I 413 W/m 7,4 C 13,9 C 7,9 km/h (2 Bft) 0,00 %
08.05.2015 09:15 14,7 C 63 % 1016,2 hPa 0,0 l/m 10,8 km/h (2 Bft) O 97 15 min 0,000 mm 3,0 UV-I 469 W/m 7,7 C 12,4 C 15,8 km/h (3 Bft) 0,00 %
08.05.2015 09:30 14,9 C 62 % 1015,6 hPa 0,0 l/m 11,9 km/h (2 Bft) O-SO 120 15 min 0,000 mm 3,0 UV-I 440 W/m 7,7 C 12,2 C 19,8 km/h (3 Bft) 0,00 %
08.05.2015 09:45 15,3 C 60 % 1015,5 hPa 0,0 l/m 6,5 km/h (2 Bft) SO 124 15 min 0,000 mm 3,0 UV-I 470 W/m 7,6 C 15,3 C 11,9 km/h (2 Bft) 0,00 %
08.05.2015 10:00 15,6 C 61 % 1015,4 hPa 0,0 l/m 7,9 km/h (2 Bft) O-SO 108 15 min 0,000 mm 4,0 UV-I 494 W/m 8,1 C 14,8 C 11,9 km/h (2 Bft) 0,00 %
08.05.2015 10:15 15,9 C 62 % 1015,4 hPa 0,0 l/m 4,0 km/h (1 Bft) O-SO 119 15 min 0,000 mm 3,0 UV-I 534 W/m 8,6 C 15,9 C 4,0 km/h (1 Bft) 0,00 %
08.05.2015 10:30 16,4 C 61 % 1014,9 hPa 0,0 l/m 8,3 km/h (2 Bft) O 86 15 min 0,000 mm 4,0 UV-I 439 W/m 8,9 C 15,4 C 11,9 km/h (2 Bft) 0,00 %
08.05.2015 10:45 16,6 C 61 % 1014,9 hPa 0,0 l/m 6,8 km/h (2 Bft) O-SO 112 15 min 0,000 mm 4,0 UV-I 623 W/m 9,0 C 16,4 C 7,9 km/h (2 Bft) 0,00 %
08.05.2015 11:00 17,4 C 60 % 1014,8 hPa 0,0 l/m 1,8 km/h (1 Bft) O-NO 57 15 min 0,000 mm 5,0 UV-I 621 W/m 9,6 C 17,4 C 4,0 km/h (1 Bft) 0,00 %
08.05.2015 11:15 17,8 C 58 % 1014,6 hPa 0,0 l/m 4,0 km/h (1 Bft) S 172 15 min 0,000 mm 5,0 UV-I 643 W/m 9,4 C 17,8 C 7,9 km/h (2 Bft) 0,00 %
08.05.2015 11:30 18,0 C 62 % 1014,4 hPa 0,0 l/m 11,9 km/h (2 Bft) O-SO 106 15 min 0,000 mm 5,0 UV-I 671 W/m 10,6 C 15,8 C 15,8 km/h (3 Bft) 0,00 %
08.05.2015 11:45 17,6 C 60 % 1014,1 hPa 0,0 l/m 9,0 km/h (2 Bft) O-NO 64 15 min 0,000 mm 5,0 UV-I 591 W/m 9,7 C 16,4 C 11,9 km/h (2 Bft) 0,00 %
08.05.2015 12:00 18,5 C 56 % 1014,2 hPa 0,0 l/m 9,7 km/h (2 Bft) O-SO 104 15 min 0,000 mm 6,0 UV-I 698 W/m 9,6 C 17,1 C 11,9 km/h (2 Bft) 0,00 %
08.05.2015 12:15 18,7 C 60 % 1013,8 hPa 0,0 l/m 2,9 km/h (1 Bft) O-SO 106 15 min 0,000 mm 6,0 UV-I 712 W/m 10,8 C 18,7 C 4,0 km/h (1 Bft) 0,00 %
08.05.2015 12:30 19,3 C 54 % 1013,8 hPa 0,0 l/m 4,3 km/h (1 Bft) O 100 15 min 0,000 mm 6,0 UV-I 748 W/m 9,8 C 19,3 C 7,9 km/h (2 Bft) 0,00 %
08.05.2015 12:45 19,8 C 55 % 1013,4 hPa 0,0 l/m 3,2 km/h (1 Bft) O-SO 112 15 min 0,000 mm 6,0 UV-I 773 W/m 10,5 C 19,8 C 4,0 km/h (1 Bft) 0,00 %
08.05.2015 13:00 20,3 C 54 % 1013,1 hPa 0,0 l/m 0,0 km/h (0 Bft) O-SO 114 15 min 0,000 mm 5,0 UV-I 799 W/m 10,7 C 20,3 C 0,0 km/h (0 Bft) 0,00 %
08.05.2015 13:15 19,8 C 55 % 1013,1 hPa 0,0 l/m 0,0 km/h (0 Bft) S 174 15 min 0,000 mm 5,0 UV-I 740 W/m 10,5 C 19,8 C 0,0 km/h (0 Bft) 0,00 %
08.05.2015 13:30 20,7 C 55 % 1012,7 hPa 0,0 l/m 0,4 km/h (0 Bft) O 80 15 min 0,000 mm 5,0 UV-I 744 W/m 11,3 C 20,7 C 4,0 km/h (1 Bft) 0,00 %
08.05.2015 13:45 20,7 C 55 % 1012,5 hPa 0,0 l/m 0,0 km/h (0 Bft) W-SW 256 15 min 0,000 mm 4,0 UV-I 777 W/m 11,3 C 20,7 C 0,0 km/h (0 Bft) 0,00 %
08.05.2015 14:00 21,0 C 51 % 1012,4 hPa 0,0 l/m 7,9 km/h (2 Bft) O 96 15 min 0,000 mm 5,0 UV-I 802 W/m 10,5 C 20,4 C 11,9 km/h (2 Bft) 0,00 %
08.05.2015 14:15 21,8 C 46 % 1012,2 hPa 0,0 l/m 0,0 km/h (0 Bft) S 190 15 min 0,000 mm 4,0 UV-I 924 W/m 9,7 C 21,8 C 0,0 km/h (0 Bft) 0,00 %
08.05.2015 14:30 21,9 C 47 % 1012,2 hPa 0,0 l/m 2,9 km/h (1 Bft) O-SO 117 15 min 0,000 mm 5,0 UV-I 718 W/m 10,1 C 21,9 C 4,0 km/h (1 Bft) 0,00 %
08.05.2015 14:45 21,7 C 49 % 1011,9 hPa 0,0 l/m 0,0 km/h (0 Bft) SO 141 15 min 0,000 mm 3,0 UV-I 583 W/m 10,5 C 21,7 C 0,0 km/h (0 Bft) 0,00 %
08.05.2015 15:00 22,8 C 41 % 1011,8 hPa 0,0 l/m 0,0 km/h (0 Bft) O 89 15 min 0,000 mm 4,0 UV-I 668 W/m 8,9 C 22,8 C 0,0 km/h (0 Bft) 0,00 %
08.05.2015 15:15 23,3 C 44 % 1011,6 hPa 0,0 l/m 0,4 km/h (0 Bft) SW 236 15 min 0,000 mm 2,0 UV-I 858 W/m 10,4 C 23,3 C 4,0 km/h (1 Bft) 0,00 %
08.05.2015 15:30 23,5 C 49 % 1011,5 hPa 0,0 l/m 4,7 km/h (1 Bft) SO 129 15 min 0,000 mm 2,0 UV-I 860 W/m 12,2 C 23,5 C 7,9 km/h (2 Bft) 0,00 %
08.05.2015 15:45 22,9 C 45 % 1011,3 hPa 0,0 l/m 0,0 km/h (0 Bft) S-SO 166 15 min 0,000 mm 2,0 UV-I 783 W/m 10,3 C 22,9 C 0,0 km/h (0 Bft) 0,00 %
08.05.2015 16:00 22,6 C 46 % 1011,4 hPa 0,0 l/m 2,2 km/h (1 Bft) O-SO 122 15 min 0,000 mm 2,0 UV-I 827 W/m 10,4 C 22,6 C 4,0 km/h (1 Bft) 0,00 %
08.05.2015 16:15 22,6 C 43 % 1011,4 hPa 0,0 l/m 3,2 km/h (1 Bft) O 101 15 min 0,000 mm 2,0 UV-I 383 W/m 9,4 C 22,6 C 4,0 km/h (1 Bft) 0,00 %
08.05.2015 16:30 22,6 C 46 % 1011,2 hPa 0,0 l/m 2,2 km/h (1 Bft) NO 47 15 min 0,000 mm 2,0 UV-I 570 W/m 10,4 C 22,6 C 4,0 km/h (1 Bft) 0,00 %
08.05.2015 16:45 22,5 C 43 % 1011,2 hPa 0,0 l/m 0,0 km/h (0 Bft) SW 221 15 min 0,000 mm 2,0 UV-I 594 W/m 9,3 C 22,5 C 0,0 km/h (0 Bft) 0,00 %
08.05.2015 17:00 22,7 C 46 % 1010,9 hPa 0,0 l/m 1,4 km/h (1 Bft) SO 125 15 min 0,000 mm 2,0 UV-I 800 W/m 10,5 C 22,7 C 4,0 km/h (1 Bft) 0,00 %
08.05.2015 17:15 22,1 C 46 % 1010,7 hPa 0,0 l/m 0,0 km/h (0 Bft) O-SO 114 15 min 0,000 mm 2,0 UV-I 641 W/m 9,9 C 22,1 C 0,0 km/h (0 Bft) 0,00 %
08.05.2015 17:30 22,3 C 48 % 1010,6 hPa 0,0 l/m 4,7 km/h (1 Bft) O 85 15 min 0,000 mm 1,0 UV-I 580 W/m 10,8 C 22,3 C 7,9 km/h (2 Bft) 0,00 %
08.05.2015 17:45 22,7 C 43 % 1010,5 hPa 0,0 l/m 1,8 km/h (1 Bft) O-SO 108 15 min 0,000 mm 1,0 UV-I 708 W/m 9,5 C 22,7 C 4,0 km/h (1 Bft) 0,00 %
08.05.2015 18:00 22,4 C 42 % 1010,5 hPa 0,0 l/m 0,0 km/h (0 Bft) O 90 15 min 0,000 mm 1,0 UV-I 625 W/m 8,9 C 22,4 C 0,0 km/h (0 Bft) 0,00 %
08.05.2015 18:15 21,5 C 45 % 1010,5 hPa 0,0 l/m 4,0 km/h (1 Bft) O-SO 107 15 min 0,000 mm 1,0 UV-I 424 W/m 9,1 C 21,5 C 7,9 km/h (2 Bft) 0,00 %
08.05.2015 18:30 21,2 C 44 % 1010,5 hPa 0,0 l/m 0,0 km/h (0 Bft) S 173 15 min 0,000 mm 1,0 UV-I 176 W/m 8,5 C 21,2 C 0,0 km/h (0 Bft) 0,00 %
08.05.2015 18:45 21,3 C 49 % 1010,5 hPa 0,0 l/m 0,0 km/h (0 Bft) S 180 0 min 0,000 mm 1,0 UV-I 129 W/m 10,1 C 21,3 C 0,0 km/h (0 Bft) 0,00 %
08.05.2015 19:00 21,1 C 49 % 1010,8 hPa 0,0 l/m 0,0 km/h (0 Bft) S 180 0 min 0,000 mm 0,0 UV-I 79 W/m 10,0 C 21,1 C 0,0 km/h (0 Bft) 0,00 %
08.05.2015 19:15 20,8 C 50 % 1010,5 hPa 0,0 l/m 0,0 km/h (0 Bft) S 180 0 min 0,000 mm 0,0 UV-I 61 W/m 10,0 C 20,8 C 0,0 km/h (0 Bft) 0,00 %
08.05.2015 19:30 20,2 C 60 % 1010,7 hPa 0,0 l/m 0,0 km/h (0 Bft) S 180 0 min 0,000 mm 0,0 UV-I 68 W/m 12,2 C 20,2 C 0,0 km/h (0 Bft) 0,00 %
08.05.2015 19:45 19,6 C 56 % 1010,8 hPa 0,0 l/m 0,0 km/h (0 Bft) S-SW 193 0 min 0,000 mm 0,0 UV-I 43 W/m 10,6 C 19,6 C 0,0 km/h (0 Bft) 0,00 %
08.05.2015 20:00 18,9 C 62 % 1011,2 hPa 0,0 l/m 0,0 km/h (0 Bft) S-SW 194 0 min 0,000 mm 0,0 UV-I 11 W/m 11,5 C 18,9 C 0,0 km/h (0 Bft) 0,00 %
08.05.2015 20:15 18,2 C 67 % 1011,2 hPa 0,0 l/m 0,0 km/h (0 Bft) S 191 0 min 0,000 mm 0,0 UV-I 2 W/m 12,0 C 18,2 C 0,0 km/h (0 Bft) 0,00 %
08.05.2015 20:30 17,5 C 68 % 1011,5 hPa 0,0 l/m 0,0 km/h (0 Bft) S-SW 196 0 min 0,000 mm 0,0 UV-I 0 W/m 11,5 C 17,5 C 0,0 km/h (0 Bft) 0,00 %
08.05.2015 20:45 16,6 C 72 % 1011,6 hPa 0,0 l/m 0,0 km/h (0 Bft) SO 133 0 min 0,000 mm 0,0 UV-I 0 W/m 11,5 C 16,6 C 0,0 km/h (0 Bft) 0,00 %
08.05.2015 21:00 16,1 C 74 % 1012,0 hPa 0,0 l/m 0,0 km/h (0 Bft) S 185 0 min 0,000 mm 0,0 UV-I 0 W/m 11,5 C 16,1 C 0,0 km/h (0 Bft) 0,00 %
08.05.2015 21:15 15,5 C 77 % 1012,2 hPa 0,0 l/m 0,0 km/h (0 Bft) S 188 0 min 0,000 mm 0,0 UV-I 0 W/m 11,5 C 15,5 C 0,0 km/h (0 Bft) 0,00 %
08.05.2015 21:30 15,1 C 75 % 1012,2 hPa 0,0 l/m 0,0 km/h (0 Bft) S 189 0 min 0,000 mm 0,0 UV-I 0 W/m 10,7 C 15,1 C 0,0 km/h (0 Bft) 0,00 %
08.05.2015 21:45 15,0 C 77 % 1012,2 hPa 0,0 l/m 0,0 km/h (0 Bft) S 184 0 min 0,000 mm 0,0 UV-I 0 W/m 11,0 C 15,0 C 0,0 km/h (0 Bft) 0,00 %
08.05.2015 22:00 14,7 C 77 % 1012,4 hPa 0,0 l/m 0,0 km/h (0 Bft) S 182 0 min 0,000 mm 0,0 UV-I 0 W/m 10,7 C 14,7 C 0,0 km/h (0 Bft) 0,00 %
08.05.2015 22:15 14,9 C 73 % 1012,4 hPa 0,0 l/m 0,0 km/h (0 Bft) S 179 0 min 0,000 mm 0,0 UV-I 0 W/m 10,1 C 14,9 C 0,0 km/h (0 Bft) 0,00 %
08.05.2015 22:30 15,0 C 71 % 1012,6 hPa 0,0 l/m 0,4 km/h (0 Bft) SW 214 0 min 0,000 mm 0,0 UV-I 0 W/m 9,8 C 15,0 C 4,0 km/h (1 Bft) 0,00 %
08.05.2015 22:45 14,8 C 71 % 1012,6 hPa 0,0 l/m 0,0 km/h (0 Bft) S 185 0 min 0,000 mm 0,0 UV-I 0 W/m 9,6 C 14,8 C 0,0 km/h (0 Bft) 0,00 %
08.05.2015 23:00 14,6 C 73 % 1013,0 hPa 0,0 l/m 0,0 km/h (0 Bft) S 179 0 min 0,000 mm 0,0 UV-I 0 W/m 9,8 C 14,6 C 0,0 km/h (0 Bft) 0,00 %
08.05.2015 23:15 13,9 C 76 % 1013,0 hPa 0,0 l/m 0,0 km/h (0 Bft) S-SW 193 0 min 0,000 mm 0,0 UV-I 0 W/m 9,7 C 13,9 C 0,0 km/h (0 Bft) 0,00 %
08.05.2015 23:30 13,5 C 76 % 1013,2 hPa 0,0 l/m 0,0 km/h (0 Bft) S 191 0 min 0,000 mm 0,0 UV-I 0 W/m 9,4 C 13,5 C 0,0 km/h (0 Bft) 0,00 %
08.05.2015 23:45 13,4 C 77 % 1013,3 hPa 0,0 l/m 0,0 km/h (0 Bft) S 177 0 min 0,000 mm 0,0 UV-I 0 W/m 9,5 C 13,4 C 0,0 km/h (0 Bft) 0,00 %
_ Min-Zeit 05:30 15:00 17:45 - 00:00 - - - - - - 06:30 05:30 00:00 00:00
Minimum _ 8,3 C 41 % 1010,5 hPa - 0,0 km/h (0 Bft) - - - - - - 6,0 C 8,3 C 0,0 km/h (0 Bft) 0,00 %
_ Max-Zeit 15:30 00:15 00:30 00:00 09:30 - - 06:00 00:00 12:00 14:15 19:30 15:30 09:30 00:00
Maximum _ 23,5 C 90 % 1019,2 hPa 0,0 l/m 11,9 km/h
O-SO (2 Bft)
- - 15 min 0,000 mm 6,0 UV-I 924 W/m 12,2 C 23,5 C 19,8 km/h
O-SO (3 Bft)
0,00 %
Durchschnitt _ 15,5 C 67 % 1014,4 hPa #0,0 l/m 1,8 km/h (1 Bft) O-SO - #10:30 h #0,000 mm 3,0 UV-I 465 W/m 8,9 C 15,3 C 3,0 km/h (1 Bft) 0,00 %